When you browse on this site, cookies collect data to enhance your experience and personalize the content and advertising you see.
Visit our Privacy Policy to learn more. By continuing to use the site, you agree to this use of cookies and data.

Hourly Weather Motril

Today, 13 August, Thursday

Time Temperature Precipitation Wind Pressure Humidity
00:00 +26°C° 0 mm 3 mps 757 mmHg 56%
01:00 +25°C° 0 mm 3 mps 757 mmHg 56%
02:00 +25°C° 0 mm 3 mps 757 mmHg 56%
03:00 +25°C° 0 mm 2 mps 757 mmHg 56%
04:00 +24°C° 0 mm 2 mps 757 mmHg 55%
05:00 +24°C° 0 mm 2 mps 757 mmHg 54%
06:00 +25°C° 0 mm 1 mps 757 mmHg 53%
07:00 +27°C° 0 mm 2 mps 757 mmHg 46%
08:00 +29°C° 0 mm 2 mps 757 mmHg 39%
09:00 +31°C° 0 mm 3 mps 757 mmHg 32%
10:00 +33°C° 0 mm 3 mps 757 mmHg 28%
11:00 +35°C° 0 mm 3 mps 757 mmHg 24%
12:00 +36°C° 0 mm 3 mps 757 mmHg 23%
13:00 +36°C° 0 mm 3 mps 757 mmHg 22%
14:00 +36°C° 0 mm 4 mps 756 mmHg 21%
15:00 +36°C° 0 mm 4 mps 755 mmHg 21%
16:00 +36°C° 0 mm 3 mps 755 mmHg 21%
17:00 +35°C° 0 mm 3 mps 755 mmHg 22%
18:00 +35°C° 0 mm 3 mps 755 mmHg 23%
19:00 +31°C° 0 mm 3 mps 755 mmHg 30%
20:00 +29°C° 0 mm 3 mps 756 mmHg 38%
21:00 +26°C° 0 mm 2 mps 756 mmHg 46%
22:00 +27°C° 0 mm 2 mps 756 mmHg 44%
23:00 +27°C° 0 mm 2 mps 756 mmHg 41%

Tomorrow, 14 August, Friday

Time Temperature Precipitation Wind Pressure Humidity
00:00 +27°C° 0 mm 3 mps 757 mmHg 39%
01:00 +26°C° 0 mm 2 mps 756 mmHg 40%
02:00 +26°C° 0 mm 2 mps 756 mmHg 42%
03:00 +26°C° 0 mm 2 mps 756 mmHg 44%
04:00 +26°C° 0 mm 2 mps 756 mmHg 44%
05:00 +25°C° 0 mm 2 mps 756 mmHg 43%
06:00 +25°C° 0 mm 2 mps 756 mmHg 43%
07:00 +28°C° 0 mm 2 mps 756 mmHg 38%
08:00 +30°C° 0 mm 2 mps 756 mmHg 34%
09:00 +34°C° 0 mm 3 mps 756 mmHg 30%
10:00 +35°C° 0 mm 3 mps 756 mmHg 28%
11:00 +35°C° 0 mm 3 mps 756 mmHg 26%
12:00 +36°C° 0 mm 3 mps 756 mmHg 24%
13:00 +37°C° 0 mm 3 mps 755 mmHg 22%
14:00 +37°C° 0 mm 4 mps 755 mmHg 21%
15:00 +37°C° 0 mm 4 mps 754 mmHg 19%
16:00 +36°C° 0 mm 3 mps 754 mmHg 21%
17:00 +36°C° 0 mm 3 mps 754 mmHg 22%
18:00 +35°C° 0 mm 3 mps 755 mmHg 24%
19:00 +31°C° 0 mm 2 mps 755 mmHg 32%
20:00 +29°C° 0 mm 2 mps 755 mmHg 39%
21:00 +27°C° 0 mm 2 mps 756 mmHg 47%
22:00 +26°C° 0 mm 2 mps 756 mmHg 46%
23:00 +26°C° 0 mm 2 mps 756 mmHg 45%

Day after tomorrow, 15 August, Saturday

Time Temperature Precipitation Wind Pressure Humidity
00:00 +26°C° 0 mm 2 mps 756 mmHg 44%
01:00 +26°C° 0 mm 2 mps 756 mmHg 44%
02:00 +26°C° 0 mm 2 mps 756 mmHg 45%
03:00 +25°C° 0 mm 2 mps 755 mmHg 45%
04:00 +25°C° 0 mm 2 mps 756 mmHg 47%
05:00 +25°C° 0 mm 2 mps 756 mmHg 48%
06:00 +25°C° 0 mm 2 mps 756 mmHg 50%
07:00 +27°C° 0 mm 2 mps 756 mmHg 45%
08:00 +29°C° 0 mm 3 mps 756 mmHg 40%
09:00 +31°C° 0 mm 3 mps 756 mmHg 35%
10:00 +33°C° 0 mm 3 mps 756 mmHg 32%
11:00 +35°C° 0 mm 3 mps 756 mmHg 29%
12:00 +36°C° 0 mm 3 mps 756 mmHg 26%
13:00 +36°C° 0 mm 4 mps 755 mmHg 26%
14:00 +36°C° 0 mm 4 mps 755 mmHg 26%
15:00 +36°C° 0 mm 4 mps 754 mmHg 26%
16:00 +35°C° 0 mm 4 mps 754 mmHg 28%
17:00 +35°C° 0 mm 4 mps 754 mmHg 30%
18:00 +34°C° 0 mm 4 mps 754 mmHg 32%
19:00 +32°C° 0 mm 4 mps 754 mmHg 34%
20:00 +30°C° 0 mm 4 mps 754 mmHg 37%
21:00 +28°C° 0 mm 4 mps 755 mmHg 39%
22:00 +28°C° 0 mm 4 mps 755 mmHg 37%
23:00 +27°C° 0 mm 4 mps 755 mmHg 36%

16 August, Sunday

Time Temperature Precipitation Wind Pressure Humidity
00:00 +27°C° 0 mm 4 mps 755 mmHg 34%
01:00 +26°C° 0 mm 4 mps 754 mmHg 35%
02:00 +26°C° 0 mm 4 mps 754 mmHg 35%
03:00 +26°C° 0 mm 4 mps 754 mmHg 36%
04:00 +25°C° 0 mm 4 mps 754 mmHg 37%
05:00 +25°C° 0 mm 4 mps 754 mmHg 39%
06:00 +25°C° 0 mm 4 mps 754 mmHg 40%
07:00 +27°C° 0 mm 4 mps 755 mmHg 35%
08:00 +30°C° 0 mm 4 mps 755 mmHg 30%
09:00 +33°C° 0 mm 4 mps 755 mmHg 26%
10:00 +34°C° 0 mm 5 mps 755 mmHg 26%
11:00 +34°C° 0 mm 5 mps 755 mmHg 27%
12:00 +35°C° 0 mm 6 mps 755 mmHg 28%
13:00 +35°C° 0 mm 6 mps 755 mmHg 27%
14:00 +35°C° 0 mm 6 mps 754 mmHg 27%
15:00 +36°C° 0 mm 6 mps 754 mmHg 27%
16:00 +35°C° 0 mm 6 mps 754 mmHg 28%
17:00 +34°C° 0 mm 5 mps 754 mmHg 29%
18:00 +34°C° 0 mm 5 mps 754 mmHg 31%
19:00 +32°C° 0 mm 5 mps 754 mmHg 30%
20:00 +30°C° 0 mm 6 mps 754 mmHg 29%
21:00 +29°C° 0 mm 6 mps 755 mmHg 29%
22:00 +28°C° 0 mm 5 mps 755 mmHg 29%
23:00 +28°C° 0 mm 5 mps 755 mmHg 30%

17 August, Monday

Time Temperature Precipitation Wind Pressure Humidity
00:00 +27°C° 0 mm 4 mps 755 mmHg 31%
01:00 +27°C° 0 mm 4 mps 755 mmHg 32%
02:00 +26°C° 0 mm 4 mps 755 mmHg 34%
03:00 +25°C° 0 mm 4 mps 755 mmHg 35%
04:00 +25°C° 0 mm 3 mps 755 mmHg 37%
05:00 +25°C° 0 mm 3 mps 755 mmHg 39%
06:00 +25°C° 0 mm 3 mps 755 mmHg 40%
07:00 +27°C° 0 mm 3 mps 755 mmHg 36%
08:00 +30°C° 0 mm 3 mps 756 mmHg 32%
09:00 +32°C° 0 mm 2 mps 756 mmHg 28%
10:00 +34°C° 0 mm 2 mps 756 mmHg 28%
11:00 +35°C° 0 mm 2 mps 756 mmHg 27%
12:00 +35°C° 0 mm 2 mps 756 mmHg 26%
13:00 +36°C° 0 mm 2 mps 755 mmHg 26%
14:00 +36°C° 0 mm 2 mps 755 mmHg 26%
15:00 +36°C° 0 mm 2 mps 755 mmHg 26%
16:00 +35°C° 0 mm 1 mps 754 mmHg 27%
17:00 +34°C° 0 mm 1 mps 754 mmHg 28%
18:00 +34°C° 0 mm 1 mps 754 mmHg 29%
19:00 +32°C° 0 mm 1 mps 755 mmHg 33%
20:00 +30°C° 0 mm 1 mps 755 mmHg 36%
21:00 +28°C° 0 mm 1 mps 756 mmHg 40%
22:00 +27°C° 0 mm 1 mps 756 mmHg 42%
23:00 +27°C° 0 mm 1 mps 756 mmHg 43%

18 August, Tuesday

Time Temperature Precipitation Wind Pressure Humidity
00:00 +26°C° 0 mm 1 mps 756 mmHg 45%
01:00 +26°C° 0 mm 1 mps 756 mmHg 45%
02:00 +26°C° 0 mm 1 mps 756 mmHg 45%
03:00 +25°C° 0 mm 1 mps 756 mmHg 45%
04:00 +26°C° 0 mm 1 mps 756 mmHg 45%
05:00 +26°C° 0 mm 1 mps 755 mmHg 45%
06:00 +26°C° 0 mm 1 mps 755 mmHg 45%
07:00 +28°C° 0 mm 2 mps 756 mmHg 41%
08:00 +30°C° 0 mm 2 mps 756 mmHg 38%
09:00 +32°C° 0 mm 2 mps 756 mmHg 34%
10:00 +34°C° 0 mm 3 mps 756 mmHg 37%
11:00 +34°C° 0 mm 3 mps 756 mmHg 40%
12:00 +35°C° 0 mm 3 mps 755 mmHg 43%
13:00 +35°C° 0 mm 2 mps 755 mmHg 45%
14:00 +35°C° 0 mm 2 mps 754 mmHg 47%
15:00 +35°C° 0 mm 2 mps 754 mmHg 50%
16:00 +34°C° 0 mm 2 mps 754 mmHg 53%
17:00 +33°C° 0 mm 1 mps 754 mmHg 57%
18:00 +32°C° 0 mm 1 mps 754 mmHg 61%
19:00 +31°C° 0 mm 1 mps 754 mmHg 66%
20:00 +29°C° 0 mm 1 mps 755 mmHg 71%
21:00 +28°C° 0 mm 1 mps 755 mmHg 75%
22:00 +28°C° 0 mm 1 mps 755 mmHg 75%
23:00 +27°C° 0 mm 1 mps 755 mmHg 75%
Show more